Location: Columbus
(35.2256°N, 82.1549°W)
Time: 10:38:28
(UTC-05:00)

X-37B - Visible Passes

Search period start: 02 December 2021 00:00
Search period end: 12 December 2021 00:00
Orbit: 330 x 341 km, 45.0° (Epoch: 20 November)

Date Brightness Start Highest point End Pass type
(mag) Time Alt. Az. Time Alt. Az. Time Alt. Az.
03 Dec 2.2 18:33:20 10° S 18:35:19 19° SE 18:35:19 19° SE visible
04 Dec 1.1 18:52:55 10° SW 18:55:10 48° SSW 18:55:10 48° SSW visible
05 Dec 2.2 17:38:46 10° S 17:40:53 19° SE 17:43:01 10° E visible
05 Dec 2.7 19:13:29 10° W 19:14:56 24° W 19:14:56 24° W visible
06 Dec 0.4 17:58:21 10° SW 18:01:10 63° SE 18:03:24 15° ENE visible
07 Dec 1.2 18:18:54 10° W 18:21:39 40° NNW 18:23:02 22° NNE visible
08 Dec 2.2 18:40:03 10° WNW 18:42:17 20° NNW 18:42:38 19° N visible
09 Dec 3.1 19:01:31 10° NW 19:02:11 12° NNW 19:02:11 12° NNW visible
10 Dec 2.3 17:45:28 10° WNW 17:47:43 20° NNW 17:49:56 10° NNE visible
11 Dec 2.7 18:06:56 10° NW 18:08:30 14° N 18:10:02 10° NNE visible
